Location: Unspecified
(0.0000°N, 0.0000°E)
Time: 20:02:17
(UTC+00:00)

Explorer 11/Cluster Stage 4 - Pass Details

Date: 28 November 2019
Orbit: 467 x 1258 km, 28.8° (Epoch: 10 August)

Event Time Altitude Azimuth Distance (km) Brightness Sun altitude
Rises 09:07:12 0° 214° (SSW) 3,665 10.0 45.4°
Reaches altitude 10° 09:11:33 10° 189° (S) 2,514 9.5 46.3°
Maximum altitude 09:14:25 14° 160° (SSE) 2,126 9.6 46.9°
Drops below altitude 10° 09:17:02 10° 131° (SE) 2,239 9.9 47.5°
Sets 09:20:29 0° 104° (ESE) 2,980 10.2 48.2°
